Other Surface Observations
Issued by NWS

Home | Current Version | Previous Version | Text Only | Print | Product List | Glossary On
Versions: 1 2 3 4 5 6 7 8 9 10 11 12 13 14 15 16 17 18 19 20 21 22 23 24 25 26 27 28 29 30 31 32 33 34 35 36 37 38 39 40 41 42 43 44 45 46 47 48 49 50
000
SXUS52 KTAE 130718
OSOTAE
OSOTAE
North Florida/South Alabama/Southwest Georgia Weather Roundup
National Weather Service Tallahassee Florida
200 AM EST SAT FEB 13 2016

Note: "fair" indicates few or no clouds below 12,000 feet with no
significant weather and/or obstructions to visibility.

!FLZ017-115-028-034-025-130800
...North Florida...

CITY           SKY/WX    TMP DP  RH WIND       PRES   REMARKS
TALLAHASSEE    CLEAR     56  53  90 NW6       30.18S
APALACHICOLA   CLEAR     58  58 100 NW6       30.19S
PERRY          FOG       52  51  97 W3        30.18S VSB 1/4
CROSS CITY       N/A     58  56  93 W6        30.16F
JACKSONVILLE   CLEAR     55  54  96 W7        30.12S
$$

!FLZ112-006-005-002-011-130800
...Florida Panhandle...

CITY           SKY/WX    TMP DP  RH WIND       PRES   REMARKS
MARIANNA       PTCLDY    52  39  61 NW5       30.20R
BONIFAY        FAIR      52  37  56 NW7       30.22S
PANAMA CITY NW FAIR      51  45  79 NW9       30.21R
TYNDALL AFB    CLEAR     57  49  75 N12       30.20S
TYND DRONE APT FAIR      56  49  77 MISG      30.20R
DE FUNIAK SPR  FAIR      53  35  51 N9G17     30.23S
EGLIN AFB      CLEAR     54  39  57 N10       30.22S
DESTIN         CLEAR     57  40  52 N10       30.23R
HURLBURT       CLEAR     52  38  58 N8        30.22S
CRESTVIEW      CLEAR     53  35  50 N7        30.26R
PENSACOLA      CLEAR     54  37  52 N12       30.25R
$$

!ALZ063-066-130800
...South Alabama...

CITY           SKY/WX    TMP DP  RH WIND       PRES   REMARKS
DOTHAN         CLEAR     50  33  52 NW12      30.24S
OZARK CAIRNS   PTCLDY    51  35  55 NW12      30.22R
FT RUCKER HELI CLEAR     51  33  50 N9        30.22R
RUCKER HELI 3  FAIR      51  33  50 N8G15     30.24R
RUCKER HELI 2  NOT AVBL
FLORALA APT    CLEAR     50  35  56 VRB5      30.26R
ANDALUSIA      PTCLDY    54  33  45 N10       30.25R
TROY           CLEAR     50  32  50 NW10      30.25R
EUFALA         FAIR      50  33  52 VRB6      30.21R
MOBILE         PTCLDY    52  36  54 N16       30.29S
$$

!GAZ120>161-130800
...Southwest and South Central Georgia...

CITY           SKY/WX    TMP DP  RH WIND       PRES   REMARKS
THOMASVILLE    FAIR      54  39  58 NW7       30.18R
BAINBRIDGE     CLEAR     55  37  50 NW9       30.19S
MOODY AFB      CLEAR     54  43  67 W5        30.14S
VALDOSTA       PTCLDY    51  49  92 CALM      30.16R
MOULTRIE       CLEAR     54  37  54 NW3       30.17S
BLAKELY        CLEAR     54  36  50 CALM      30.21R
ALBANY         CLEAR     52  34  50 NW10      30.20R
TIFTON         FAIR      53  37  54 NW13      30.16R
FITZGERALD     FAIR      54  33  46 NW12G18   30.18R
CORDELE        FAIR      52  33  49 N9        30.19S
AMERICUS       FAIR      48  32  53 N8        30.20S WCI  45
HOMERVILLE     FAIR      52  45  76 CALM      30.14S
$$

!GMZ750-755-770-775-130800
...Coastal and Buoy Obs...

STATION/POSITION TIME  TEMP    WIND        PRES    VSBY  WAVE
                       AIR SEA DIR/SP/G                  HT/PER
                 (UTC) (F)     (DEG/KT/KT) (MB)    (MI)  (FT/S)
KEATON BEACH     0700   57     310/  5/  7 1021.3F
CEDAR KEY        0600   61     270/  8/ 11 1022.2F
C TOWER          NOT AVBL
APALACHICOLA BUO 0650   68 67  290/ 17/ 21 1022.2F         5/ 6
PANAMA CITY BUOY 0550   68 68  290/ 19/ 21 1023.2          5/ 6
MOBILE BUOY      NOT AVBL
ORANGE BCH AL BU 0650   62 66  360/ 21/ 25 1023.1R         3/ 3
$$




USA.gov is the U.S. government's official web portal to all federal, state and local government web resources and services.